TimeHST,TemperatureF,Dew PointF,Humidity,Sea Level PressureIn,VisibilityMPH,Wind Direction,Wind SpeedMPH,Gust SpeedMPH,PrecipitationIn,Events,Conditions,WindDirDegrees,DateUTC
12:13 AM,71.6,57.2,60,30.04,10.0,NE,6.9,-,N/A,,Scattered Clouds,50,2013-02-24 10:13:00
12:53 AM,71.1,57.9,63,30.04,10.0,ESE,3.5,-,N/A,,Mostly Cloudy,120,2013-02-24 10:53:00
1:53 AM,70.0,60.1,71,30.02,10.0,NNE,3.5,-,N/A,,Clear,20,2013-02-24 11:53:00
2:53 AM,69.1,59.0,70,30.01,10.0,North,6.9,-,N/A,,Partly Cloudy,10,2013-02-24 12:53:00
3:53 AM,71.1,60.1,68,30.00,10.0,Calm,Calm,-,N/A,,Scattered Clouds,0,2013-02-24 13:53:00
4:53 AM,70.0,60.1,71,30.00,10.0,East,4.6,-,N/A,,Clear,90,2013-02-24 14:53:00
5:53 AM,71.1,57.9,63,29.99,10.0,Calm,Calm,-,N/A,,Clear,0,2013-02-24 15:53:00
6:53 AM,69.1,60.1,73,30.02,10.0,ESE,8.1,-,N/A,,Clear,110,2013-02-24 16:53:00
7:53 AM,72.0,57.9,61,30.04,10.0,North,6.9,-,N/A,,Clear,350,2013-02-24 17:53:00
8:53 AM,75.9,57.0,52,30.05,10.0,SE,3.5,-,N/A,,Clear,140,2013-02-24 18:53:00
9:53 AM,77.0,61.0,58,30.06,10.0,SW,5.8,-,N/A,,Clear,230,2013-02-24 19:53:00
10:53 AM,79.0,60.1,52,30.06,10.0,WSW,9.2,-,N/A,,Clear,240,2013-02-24 20:53:00
11:53 AM,78.1,63.0,60,30.03,10.0,SW,9.2,-,N/A,,Scattered Clouds,220,2013-02-24 21:53:00
12:53 PM,79.0,63.0,58,30.01,10.0,SW,11.5,-,N/A,,Scattered Clouds,230,2013-02-24 22:53:00
1:53 PM,79.0,64.0,60,29.99,10.0,SSW,10.4,-,N/A,,Clear,210,2013-02-24 23:53:00
2:53 PM,80.1,64.0,58,29.97,10.0,South,11.5,-,N/A,,Mostly Cloudy,180,2013-02-25 00:53:00
3:53 PM,79.0,63.0,58,29.96,10.0,SSW,8.1,-,N/A,,Overcast,200,2013-02-25 01:53:00
4:53 PM,78.1,64.0,62,29.97,10.0,South,10.4,-,N/A,,Mostly Cloudy,180,2013-02-25 02:53:00
5:53 PM,78.1,62.1,58,29.99,10.0,East,6.9,-,N/A,,Mostly Cloudy,100,2013-02-25 03:53:00
6:19 PM,78.8,57.2,47,29.99,10.0,NNE,13.8,-,N/A,,Scattered Clouds,30,2013-02-25 04:19:00
6:53 PM,75.9,57.9,54,30.01,10.0,NE,23.0,34.5,0.00,Rain,Light Rain,50,2013-02-25 04:53:00
7:53 PM,73.9,57.0,55,30.02,10.0,NE,12.7,-,0.00,,Partly Cloudy,40,2013-02-25 05:53:00
8:53 PM,75.0,60.1,60,30.03,10.0,Calm,Calm,-,N/A,,Mostly Cloudy,0,2013-02-25 06:53:00
9:05 PM,75.2,60.8,61,30.03,10.0,East,6.9,-,N/A,,Mostly Cloudy,80,2013-02-25 07:05:00
9:17 PM,73.4,60.8,65,30.04,10.0,NE,9.2,-,N/A,,Mostly Cloudy,40,2013-02-25 07:17:00
9:45 PM,73.4,57.2,57,30.05,10.0,NNE,10.4,-,N/A,,Mostly Cloudy,20,2013-02-25 07:45:00
9:53 PM,73.0,57.0,57,30.06,10.0,NNE,8.1,-,N/A,,Mostly Cloudy,20,2013-02-25 07:53:00
10:11 PM,73.4,57.2,57,30.05,10.0,NNE,6.9,-,N/A,,Partly Cloudy,20,2013-02-25 08:11:00
10:53 PM,72.0,57.9,61,30.06,10.0,ENE,8.1,-,N/A,,Partly Cloudy,70,2013-02-25 08:53:00
11:53 PM,71.1,59.0,66,30.05,10.0,ENE,6.9,-,N/A,,Clear,70,2013-02-25 09:53:00